Regional Weather Roundup
Issued by NWS

Home | Current Version | Previous Version | Graphics & Text | Print | Product List | Glossary On
Versions: 1 2 3 4 5 6 7 8 9 10 11 12 13 14 15 16 17 18 19 20 21 22 23 24 25 26 27 28 29 30 31 32 33 34 35 36 37 38 39 40 41 42 43 44 45 46 47 48 49 50
000
ASUS43 KLOT 031902
RWRIL

ILLINOIS REGIONAL WEATHER ROUNDUP
NATIONAL WEATHER SERVICE CHICAGO/ROMEOVILLE IL
200 PM CDT SUN MAY 03 2015

NOTE: "FAIR" INDICATES FEW OR NO CLOUDS BELOW 12,000 FEET WITH NO
SIGNIFICANT WEATHER AND/OR OBSTRUCTIONS TO VISIBILITY.

* THESE STATIONS ARE NOT UNDER NWS QUALITY CONTROL. THEY ALSO MAY NOT
  REPORT WEATHER SUCH AS PRECIPITATION OR FOG.

ILZ001-002-007-009-015-016-024-032000-
NORTHWEST ILLINOIS

CITY           SKY/WX    TMP DP  RH WIND       PRES   REMARKS
MOLINE         CLOUDY    76  58  53 NW8       29.88S
STERLING*      CLOUDY    73  59  60 SE8G17    29.90F
$$

ILZ003-004-008-010-011-017-018-032000-
NORTH CENTRAL ILLINOIS

CITY           SKY/WX    TMP DP  RH WIND       PRES   REMARKS
ROCKFORD       CLOUDY    66  57  72 W8        29.96R
FREEPORT*      CLOUDY    61  58  89 CALM      29.94F
$$

ILZ005-006-012>014-019>023-032000-
NORTHEAST ILLINOIS

CITY           SKY/WX    TMP DP  RH WIND       PRES   REMARKS
CHICAGO-OHARE  LGT RAIN  72  49  44 SW8       29.95R
CHICAGO-MIDWAY PTSUNNY   78  46  32 SW16      29.95F
AURORA         CLOUDY    75  50  41 SE7       29.94F
WAUKEGAN       MOSUNNY   74  51  44 SW15G24   29.92F
DUPAGE AIRPORT CLOUDY    68  55  63 CALM      29.94F
WHEELING       MOSUNNY   74  48  39 SW10      29.95S
NORTHERLY ISL    N/A     77  41  27 S7          N/A
$$

LMZ740>746-032000-
SOUTHERN LAKE MICHIGAN

STATION/POSITION SKY/WX   TEMP    WIND        PRES    VSBY  WAVE
                          AIR SEA DIR/SP/G                  HT/PER
                          (F)     (DEG/KT/KT) (MB)    (MI)  (FT/S)
HARRISON CRIB              71     200/ 21/ 25   N/A
BURNHAM HARBOR             78     190/ 18       N/A
CALUMET HARBOR             78     190/ 13/ 19   N/A
BURNS HARBOR               75     200/ 15/ 21 1015.6F
MICHIGAN CITY              74     200/ 19/ 23   N/A
MICHIGAN CITY 6N           64 50  240/ 12/ 14   N/A           1/ 3
ST. JOSEPH                 57 49  270/  6/  6   N/A           1
$$

ILZ025>027-034>036-040-047-049-050-058-095>099-032000-
WEST-CENTRAL ILLINOIS

CITY           SKY/WX    TMP DP  RH WIND       PRES   REMARKS
QUINCY         MOSUNNY   81  55  40 SW17      29.91F HX  81
$$

ILZ028>032-037-038-041>044-048-051>054-059>061-032000-
CENTRAL ILLINOIS

CITY           SKY/WX    TMP DP  RH WIND       PRES   REMARKS
DECATUR        MOSUNNY   81  48  31 S17G26    29.98F HX  80
PEORIA         PTSUNNY   85  50  29 S18G29    29.91S HX  83
SPRINGFIELD    PTSUNNY   83  50  31 S17G28    29.96S HX  81
TAYLORVILLE    NOT AVBL
$$

ILZ033-039-045-046-055>057-062-063-032000-
EAST-CENTRAL ILLINOIS

CITY           SKY/WX    TMP DP  RH WIND       PRES   REMARKS
CHAMPAIGN      SUNNY     83  40  21 S21G28    29.99F HX  81
MATTOON        SUNNY     77  44  30 S15G22    30.01F
$$

ILZ079-100>102-032000-
SOUTHWEST ILLINOIS

CITY           SKY/WX    TMP DP  RH WIND       PRES   REMARKS
BELLEVILLE     SUNNY     81  51  34 VRB7      29.98F HX  80
CAHOKIA*       SUNNY     82  50  32 S9G20     29.98F HX  81
$$

ILZ064>066-069>071-074>076-080>082-084>086-088>090-092>094-032000-
SOUTH-CENTRAL ILLINOIS

CITY           SKY/WX    TMP DP  RH WIND       PRES   REMARKS
CARBONDALE     SUNNY     78  48  34 S16       30.04F
MT. VERNON     SUNNY    N/A N/A N/A S16       30.05S
$$

ILZ067-068-072-073-078-083-087-091-032000-
SOUTHEAST ILLINOIS

CITY           SKY/WX    TMP DP  RH WIND       PRES   REMARKS
LAWRENCEVILLE  SUNNY     79  47  32 S13       30.05F
ROBINSON*      SUNNY     80  43  27 S14G21    30.05F
$$

ABBREVIATIONS USED IN REMARKS
   TC - TEMPERATURE IN CELSIUS
  WCI - WIND CHILL INDEX
   HX - HEAT INDEX
  VSB - VISIBILITY
$$



USA.gov is the U.S. government's official web portal to all federal, state and local government web resources and services.